Probability
0 0 0 0 0 0 0 0 0 0 0 0 0 0 0 0 0 0 0 0 0 0 0 0 0 0 0 0 0 0 0 0 0 0 0 0 0 0 0 0 0 0 0
0 0 0 0 0 0 0 0 0 0 0 0 0 0 0 0 0 0 0 0 0 0 0 0 0 0 0 0 0 0 0 0 0 0 0 0 0 0 0 0 0 0 0
0 0 0 0 0 0 0 0 0 0 0 0 0 0 0 0 0 0 0 0 0 0 0 0 0 0 0 0 0 0 0 0 0 0 0 0 0 0 0 0 0 0 0
0 0 0 0 0 0 0 0 0 0 0 0 0 0 0 0 0 0 0 0 0 0 0 0 0 0 0 0 0 0 0 0 0 0 0 0 0 0 0 0 0 0 0
0 0 0 0 0 0 0 0 0 0 0 0 0 0 0 0 0 0 0 0 0 0 0 0 0 0 0 0 0 0 0 0 0 0 0 0 0 0 0 0 0 0 0
0 0 0 0 0 0 0 0 0 0 0 0 0 0 0 0 0 0 0 0 0 0 0 0 0 0 0 0 0 0 0 0 0 0 0 0 0 0 0 0 0 0 0
0 0 0 0 0 0 0 0 0 0 0 0 0 0 0 0 0 0 0 0 0 0 0 0 0 0 0 0 0 0 0 0 0 0 0 0 0 0 0 0 0 0 0
0 0 0 0 0 0 0 0 0 0 0 0 0 0 0 0 0 0 0 0 0 0 0 0 0 0 0 0 0 0 0 0 0 0 0 0 0 0 0 0 0 0 0
0 0 0 0 0 0 0 0 0 0 0 0 0 0 0 0 0 0 0 0 0 0 0 0 0 0 0 0 0 0 0 0 0 0 0 0 0 0 0 0 0 0 0
0 0 0 0 0 0 0 0 0 0 0 0 0 0 0 0 0 0 0 0 0 0 0 0 0 0 0 0 0 0 0 0 0 0 0 0 0 0 0 0 0 0 0
0 0 0 0 0 0 0 0 0 0 0 0 0 0 0 0 0 0 0 0 0 0 0 0 0 0 0 0 0 0 0 0 0 0 0 0 0 0 0 0 0 0 0
0 0 0 0 0 0 0 0 0 0 0 0 0 0 0 0 0 0 0 0 0 0 0 0 0 0 0 0 0 0 0 0 0 0 0 0 0 0 0 0 0 0 0
0 0 0 0 0 0 0 0 0 0 0 0 0 0 0 0 0 0 0 0 0 0 0 0 0 0 0 0 0 0 0 0 0 0 0 0 0 0 0 0 0 0 0
0 0 0 0 0 0 0 0 0 0 0 0 0 0 0 0 0 0 0 0 0 0 0 0 0 0 0 0 0 0 0 0 0 0 0 0 0 0 0 0 0 0 0
0 0 0 0 0 0 0 0 0 0 0 0 0 0 0 0 0 0 0 0 0 0 0 0 0 0 0 0 0 0 0 0 0 0 0 0 0 0 0 0 0 0 0
0 0 0 0 0 0 0 0 0 0 0 0 0 0 0 0 0 0 0 0 0 0 0 0 0 0 0 0 0 0 0 0 0 0 0 0 0 0 0 0 0 0 0
0 0 0 0 0 0 0 0 0 0 0 0 0 0 0 0 0 0 0 0 0 0 0 0 0 0 0 0 0 0 0 0 0 0 0 0 0 0 0 0 0 0 0
0 0 0 0 0 0 0 0 0 0 0 0 0 0 0 0 0 0 0 0 0 0 0 0 0 0 0 0 0 0 0 0 0 0 0 0 0 0 0 0 0 0 0
0 0 0 0 0 0 0 0 0 0 0 0 0 0 0 0 0 0 0 0 0 0 0 0 0 0 0 0 0 0 0 0 0 0 0 0 0 0 0 0 0 0 0
0 0 0 0 0 0 0 0 0 0 0 0 0 0 0 0 0 0 0 0 0 0 0 0 0 0 0 0 0 0 0 0 0 0 0 0 0 0 0 0 0 0 0
0 0 0 0 0 0 0 0 0 0 0 0 0 0 0 0 0 0 0 0 0 0 0 0 0 0 0 0 0 0 0 0 0 0 0 0 0 0 0 0 0 0 0
0 0 0 0 0 0 0 0 0 0 0 0 0 0 0 0 0 0 0 0 0 0 0 0 0 0 0 0 0 0 0 0 0 0 0 0 0 0 0 0 0 0 0
0 0 0 0 0 0 0 0 0 0 0 0 0 0 0 0 0 0 0 0 0 0 0 0 0 0 0 0 0 0 0 0 0 0 0 0 0 0 0 0 0 0 0
0 0 0 0 0 0 0 0 0 0 0 0 0 0 0 0 0 0 0 0 0 0 0 0 0 0 0 0 0 0 0 0 0 0 0 0 0 0 0 0 0 0 0
0 0 0 0 0 0 0 0 0 0 0 0 0 0 0 0 0 0 0 0 0 0 0 0 0 0 0 0 0 0 0 0 0 0 0 0 0 0 0 0 0 0 0
0 0 0 0 0 0 0 0 0 0 0 0 0 0 0 0 0 0 0 0 0 0 0 0 0 0 0 0 0 0 0 0 0 0 0 0 0 0 0 0 0 0 0
Wind_Speed
8 9 9 9 8 7 8 9 10 8 7 6 5 5 4 4 3 3 5 5 4 4 3 2 1 1 1 0 1 1 2 2 2 3 4 5 5 3 1 1 2 3 4
6 8 9 9 9 9 8 9 10 9 8 6 5 5 5 4 4 4 4 5 4 4 3 3 2 2 1 0 0 0 1 2 2 1 3 5 5 4 3 3 3 3 3
6 8 9 9 8 9 9 8 10 9 8 7 5 5 3 3 3 4 3 4 5 4 4 3 2 2 2 1 1 1 1 1 2 0 0 1 3 5 4 4 3 3 4
5 8 10 10 9 8 8 8 9 9 8 8 8 8 6 5 5 4 4 4 5 5 4 4 3 3 2 2 2 2 1 1 2 2 1 3 3 2 5 4 4 5 5
4 6 9 9 8 8 7 7 8 9 9 8 9 8 6 5 4 5 6 5 4 5 5 4 4 3 2 3 2 1 2 2 2 2 2 2 2 4 5 8 6 4 4
4 4 6 8 7 7 7 7 8 8 9 9 9 9 8 7 7 6 6 5 3 4 5 4 4 4 3 3 3 3 3 3 3 2 2 3 3 3 4 7 8 7 5
4 5 6 8 8 8 8 8 8 8 9 9 9 9 9 9 8 7 6 5 4 4 5 5 4 3 4 3 3 3 3 4 4 4 3 3 4 4 4 6 8 9 6
4 5 7 8 8 9 9 9 9 9 9 9 9 8 8 6 5 7 6 6 5 5 6 6 5 5 4 4 4 3 4 4 4 5 5 4 4 4 4 5 6 10 8
5 5 6 8 8 9 10 10 10 9 9 9 9 8 8 7 6 7 6 5 5 5 7 6 6 5 5 5 4 4 5 4 5 5 6 5 5 4 5 5 5 6 11
4 5 6 7 8 8 8 9 9 9 8 8 8 7 7 7 7 6 6 6 6 6 6 6 6 5 5 5 4 4 4 5 5 4 6 6 5 5 5 5 5 6 8
4 4 4 5 6 6 7 8 8 8 8 8 7 7 7 6 6 6 6 6 5 6 7 6 6 5 5 5 5 5 5 6 6 6 6 7 7 5 5 5 5 6 6
4 4 4 4 5 6 6 7 7 8 8 7 7 7 6 6 6 6 6 6 6 6 6 6 6 6 6 6 6 6 6 6 7 7 7 8 6 7 6 6 7 7 7
4 3 3 4 4 5 5 6 6 6 6 6 6 6 6 6 6 6 6 6 6 6 5 6 6 6 6 6 6 6 6 7 7 7 7 8 7 8 7 7 7 7 8
3 3 2 3 3 4 5 5 5 5 5 6 6 6 6 6 6 5 5 5 5 5 5 6 6 6 6 6 6 6 6 7 7 7 7 8 8 9 9 9 9 8 8
2 3 3 3 3 3 4 4 4 4 4 5 5 5 5 4 4 4 5 4 5 5 5 5 5 5 5 6 6 6 7 7 8 8 8 9 12 16 14 11 9 8 8
3 3 3 3 3 3 3 4 4 4 4 4 4 4 4 4 4 4 4 4 4 4 5 6 6 6 6 9 12 10 7 7 8 9 9 10 12 16 22 24 22 18 12
3 3 3 3 3 3 3 4 4 4 4 4 4 4 4 4 4 4 4 4 5 5 5 6 6 6 8 12 14 14 9 7 7 8 8 9 10 16 10 16 22 20 23
3 3 3 3 2 2 3 3 3 4 4 3 3 4 4 4 4 4 4 4 4 4 5 5 6 6 8 12 14 15 10 8 8 9 9 9 9 10 13 11 10 10 11
3 3 3 3 3 3 4 4 3 3 3 4 3 3 4 4 4 4 4 4 4 4 5 5 5 6 7 12 14 14 6 7 9 9 9 10 9 17 23 14 11 11 10
3 3 3 3 3 3 4 4 3 3 3 3 3 2 3 3 4 4 4 3 4 4 4 5 5 6 7 11 15 15 6 7 7 7 8 14 16 20 23 13 10 12 11
3 3 3 3 3 3 4 3 3 3 2 2 2 2 2 3 3 3 3 3 3 4 4 5 5 6 8 11 14 15 7 6 7 6 6 7 19 23 24 21 12 16 17
3 4 3 3 3 3 4 3 3 2 3 2 2 2 2 2 2 2 3 3 3 4 5 5 6 5 6 8 12 17 17 15 9 7 6 8 20 23 25 19 19 25 22
4 3 4 3 3 3 3 3 2 3 3 2 1 1 2 2 2 3 3 3 3 4 4 4 5 5 4 7 15 18 19 20 12 9 16 21 24 23 16 19 25 20 9
4 4 4 4 3 2 3 3 3 3 2 2 2 2 2 2 2 2 3 3 3 4 4 5 6 6 5 5 5 6 8 13 12 10 14 22 22 18 17 17 13 7 7
3 4 4 4 3 3 3 3 3 3 2 1 2 2 2 2 3 3 3 4 4 5 6 5 5 6 7 9 16 12 7 6 8 11 7 6 7 6 7 7 7 6 5
4 4 4 3 3 3 3 2 2 2 2 1 1 2 2 2 3 3 4 6 9 13 14 14 13 11 15 20 21 22 22 23 22 15 7 7 7 8 7 7 6 5 5
Wind_Direction
187 174 168 163 165 170 172 170 168 174 168 161 162 162 167 164 160 160 165 166 168 167 166 171 177 138 137 248 322 355 346 330 338 335 316 299 284 266 258 291 311 313 311
184 167 162 163 170 176 178 175 171 172 173 168 165 162 160 165 164 163 170 171 174 171 165 171 174 159 149 287 309 29 348 317 357 0 335 332 333 347 341 320 300 300 312
192 169 168 172 173 178 180 179 173 170 172 164 151 143 133 135 153 171 174 179 175 172 166 172 175 167 164 194 213 197 208 288 314 0 145 324 299 315 301 293 298 311 311
196 174 170 174 178 180 173 175 170 169 173 167 164 166 170 174 180 171 170 181 181 175 169 172 176 173 173 190 208 192 193 199 269 292 232 220 239 284 306 305 305 309 301
186 176 171 174 174 168 165 171 170 173 176 176 175 178 179 178 165 164 173 182 183 174 169 172 174 181 186 193 194 194 215 207 222 238 257 273 274 246 261 287 295 296 285
172 172 163 160 162 160 161 169 175 179 180 182 181 183 184 181 177 177 178 178 172 175 177 176 178 185 185 190 193 202 218 228 235 236 233 235 246 257 260 278 291 292 286
165 175 169 169 169 167 170 177 183 186 186 187 189 190 189 189 188 181 177 174 174 182 188 181 184 188 190 191 194 206 223 227 234 236 239 238 241 246 257 274 286 288 289
169 184 183 180 179 178 178 184 192 194 190 191 194 195 191 189 187 178 173 181 185 187 183 183 188 192 190 194 197 212 224 227 231 241 243 243 246 245 247 257 279 292 290
177 187 187 185 185 185 187 189 194 197 196 193 192 195 193 189 185 179 177 182 182 181 179 182 188 193 194 198 201 216 227 228 231 237 241 243 245 244 246 247 245 268 289
180 187 192 193 192 190 189 189 193 198 198 194 193 194 194 190 181 177 182 182 182 175 173 181 188 195 200 205 210 222 230 234 238 237 244 250 250 248 246 245 246 243 263
186 189 195 192 188 186 186 190 193 196 196 196 194 192 191 185 180 181 185 182 179 174 179 185 191 198 206 210 215 224 230 236 244 245 247 251 252 253 251 248 248 249 254
177 179 186 183 186 190 191 191 193 196 195 191 192 192 188 182 184 187 187 181 181 181 184 186 195 205 211 214 219 230 234 238 245 249 251 256 260 258 254 252 252 253 252
170 176 179 186 193 192 191 192 195 195 189 183 186 187 185 185 189 190 186 182 181 184 188 191 202 211 216 221 225 230 237 240 244 247 251 257 260 263 260 258 258 258 262
170 174 188 199 198 191 188 189 194 187 181 178 182 189 190 188 189 186 183 183 182 189 198 203 209 215 221 227 232 236 242 247 249 251 254 257 257 261 262 263 260 261 263
184 187 196 209 203 193 186 183 186 181 176 177 185 190 184 179 179 182 183 184 189 198 203 210 217 220 224 231 235 238 244 249 255 257 258 260 264 266 269 271 264 259 261
206 191 189 198 204 195 185 181 179 175 166 175 183 178 176 179 183 186 186 190 198 203 208 216 220 225 235 248 252 255 249 249 253 260 262 266 271 273 277 279 279 275 270
204 188 191 193 189 183 175 179 171 157 159 173 177 176 177 183 186 185 188 200 207 212 220 224 225 232 240 251 259 263 264 254 255 259 264 272 274 281 274 278 281 281 279
192 181 175 170 166 158 153 149 142 149 162 176 183 182 181 188 188 192 204 213 214 218 226 231 233 240 249 258 265 270 267 259 257 257 260 266 270 272 280 274 271 266 270
160 153 149 149 150 154 147 140 150 156 168 185 189 183 182 190 195 205 215 220 224 233 235 236 240 246 255 262 269 273 263 259 259 259 261 269 270 279 287 286 280 278 274
123 128 126 130 140 143 134 141 161 164 184 186 178 172 181 195 206 215 223 227 229 238 242 247 245 248 254 264 271 274 264 264 266 264 262 272 279 285 289 286 281 281 279
140 133 132 138 144 135 134 151 162 178 168 141 143 170 197 209 217 225 229 234 241 246 250 255 256 254 260 270 273 278 277 266 270 271 268 267 285 289 290 289 282 281 285
147 143 140 138 127 128 137 154 170 152 124 128 154 195 216 221 224 230 242 241 241 251 257 262 266 261 265 274 280 284 285 288 284 280 276 277 290 291 292 292 287 289 292
161 149 143 137 132 136 142 156 155 124 121 135 185 219 230 236 236 234 244 251 248 251 259 261 268 271 266 274 284 288 291 291 289 282 287 292 295 296 294 291 291 292 287
158 147 144 150 155 142 133 143 136 130 138 174 213 224 237 251 251 247 240 245 248 255 263 267 272 277 275 272 274 273 282 288 290 288 288 292 293 292 290 291 290 279 266
151 146 154 159 157 142 135 132 132 132 156 198 221 238 248 255 263 259 250 255 245 251 267 264 263 275 280 277 287 291 285 280 276 291 285 282 285 280 278 277 275 268 269
143 145 150 151 150 142 138 135 134 145 168 204 233 244 256 264 267 276 288 282 278 286 285 285 285 285 286 294 296 297 298 300 300 300 291 289 287 286 286 286 283 275 268